sat.trackr.live / text

‹ back to catalog

STARLINK-11636 [DTC]

NORAD 63194 · 2025-048M

PAYLOAD ACTIVE UNKNOWN

§ Identity

Operator
Country
US
Launch date
2025-03-13
Launch site
AFETR
Launch vehicle
Mass (kg)
RCS (m²)

Purposes: comms

External: N2YO · Heavens-Above · Gunter

§ Orbital elements

Epoch: 2026-05-24T15:14:54.653856Z

Period
91.67 min
Inclination
43.0015°
Eccentricity
0.0001107
Mean motion
15.70852707 rev/d
Perigee alt
355.7 km
Apogee alt
357.2 km
Semi-major
6,734.6 km
B*
1.4919e-3
RAAN
222.2810°
Arg perigee
258.8819°
Mean anomaly
101.1924°
Rev number
7,046

§ Raw data

STARLINK-11636 [DTC]1 63194U 25048M   26144.63535479  .00195653  00000+0  14919-2 0  99952 63194  43.0015 222.2810 0001107 258.8819 101.1924 15.70852707 70462

JSON: /api/v1/satellites/63194 · /tle

For live sub-satellite position, see the globe view (requires WebGL).

§ Visibility from observer

Set your observer location to see the next 7 days of passes ≥ 10°. The values pass through the URL so the page stays shareable.

No JS? Fill the form by hand. The geolocation button needs JavaScript.